Погода в Гвардейском

Россия / Республика Крым     45°06′56″N   34°00′50″E
темп.,
°C
ветер,
м/с
пор.,
м/с
влажн.,
%
обл.,
%
осадки,
мм/ч
давл.,
гПа
погр.,
м
16 мая, пн
пн1600:00+11ююз34746 0.0 101953
03:00+10ю347677 0.0 101842
06:00+11ю337315 0.0 101952
09:00+17зюз45595 0.0 1019581
12:00+20з575040 0.0 10192024
15:00+20з66535 0.0 10191341
18:00+17з56635 0.0 1018583
21:00+12ююз338931 0.0 101938
17 мая, вт
вт1700:00+11ююз22905 0.0 101915
03:00+10ю22916 0.0 101825
06:00+12ю338312 0.0 101862
09:00+17з346593 0.0 1018588
12:00+18зюз456376 0.1 1018692
15:00+18зюз35605 0.2 1016766
18:00+16зюз5769100 0.0 1016415
21:00+13ю3479100 0.0 101583
18 мая, ср
ср1800:00+13ю2373100 0.0 101448
03:00+12зюз3987100 0.8 1013304
06:00+11з2494100 2.8 1011158
09:00+11ююз3797100 15.2 1011429
12:00+11с6996100 5.4 1012576
15:00+12с6881100 7.6 1014976
18:00+13сз4763100 0.2 1015444
21:00+8ссз61187100 0.8 1019529
19 мая, чт
чт1900:00+7сз2589100 4.2 1021203
03:00+5з119655 4.5 102317
06:00+7зюз129579 0.1 1025103
09:00+11ссз358071 0.1 1026834
12:00+14ссз4559100 0.3 10261709
15:00+13з4569100 0.4 1027782
18:00+12зюз467758 0.1 1026361
21:00+8ююз349129 0.1 102869
20 мая, пт
пт2000:00+8ю359187 0.0 102787
03:00+8ююз34875 0.0 102667
06:00+8ю46855 0.0 1026107
09:00+15юз576626 0.0 1025579
12:00+18зюз675846 0.0 10251055
15:00+18зюз67605 0.0 10231035
18:00+16юз68705 0.0 1022660
21:00+12ююз4993100 0.0 1021196